Regional Weather Roundup
Issued by NWS Midland/Odessa, TX

Home | Current Version | Previous Version | Text Only | Print | Product List | Glossary On
Versions: 1 2 3 4 5 6 7 8 9 10 11 12 13 14 15 16 17 18 19 20 21 22 23 24 25 26 27 28 29 30 31 32 33 34 35 36 37 38 39 40 41 42 43 44 45 46 47 48 49 50
000
ASUS44 KMAF 282310
RWRMAF
MIDLAND AREA WEATHER ROUNDUP
NATIONAL WEATHER SERVICE MIDLAND TX
600 PM CDT TUE MAR 28 2017

...IN SOUTHWEST TEXAS AND SOUTHEAST NEW MEXICO...

CITY           SKY/WX    TMP DP  RH WIND       PRES   REMARKS
ALPINE         PTSUNNY   67  29  24 NW24G38   29.74R
ANDREWS        PTSUNNY   75  33  21 W25G33    29.58S
ARTESIA        PTSUNNY   68  28  22 SW26G36   29.69R
BIG SPRING     CLOUDY    74  60  61 SE16G23   29.56F
CARLSBAD       CLOUDY    62  35  36 W46G59    29.68R
DRYDEN           N/A     81  63  54 E22G30    29.51F
FORT STOCKTON  SUNNY     85  15   7 SW21G37   29.54R
GUAD PASS      CLOUDY    51  26  37 SW32G43   29.77F
HOBBS          LGT RAIN  68  36  30 W31G47    29.66R
MARFA          PTSUNNY   62  31  31 W40G48    29.77R
MIDLAND AIRPK  CLOUDY    82  49  32 SE17      29.52F
MIDLAND INTL   MOSUNNY   81  47  30 S17       29.52F
ODESSA           N/A     81  29  15 NW10      29.54F
PECOS          TSTM      67  35  31 W3        29.67R
PRESIDIO       CLOUDY    73  30  20 W36G56    29.62R HAZE
SEMINOLE       RAIN      67  42  40 W21G33    29.65R
SNYDER         CLOUDY    64  56  74 SE10      29.54F
WINK           LGT RAIN  72  39  30 W23G29    29.60R
$$
...OTHER STATIONS IN TEXAS...

CITY           SKY/WX    TMP DP  RH WIND       PRES   REMARKS
ABILENE        CLOUDY    73  64  73 SE21G32   29.58F
AMARILLO       CLOUDY    53  50  89 NE16      29.71F
AUSTIN         MOSUNNY   84  61  45 SE23G36   29.67R
BROWNSVILLE    CLOUDY    82  71  69 SE25G31   29.65F
CORPUS CHRISTI PTSUNNY   79  71  76 SE31      29.66F
DALLAS FTW     PTSUNNY   81  66  60 SE18G26   29.66F
DEL RIO        SUNNY     83  66  56 SE23G33   29.50F
EL PASO        PTSUNNY   57  31  37 SW18G25   29.80F
HOUSTON INT    MOSUNNY   79  67  66 SE21G29   29.77F
LUBBOCK        PTSUNNY   68  54  60 E18       29.61S THUNDER
SAN ANGELO     MOSUNNY   78  61  55 S21G30    29.57F
SAN ANTONIO    CLOUDY    81  55  40 SE21G33   29.66R
WACO           PTSUNNY   81  64  56 SE22G28   29.67F
WICHITA FALLS  NOT AVBL
$$
...OTHER LOCATIONS IN NEW MEXICO...

CITY           SKY/WX    TMP DP  RH WIND       PRES   REMARKS
ALAMAGORDO     PTSUNNY   59  28  31 SW14      29.76S
ALBUQUERQUE    PTSUNNY   47  37  68 NE16      29.81S
CANNON AFB     MOSUNNY   71  34  26 W29G37    29.67R
CLOVIS         PTSUNNY   72  34  25 W15       29.66R
HOLLOMAN AFB   CLOUDY    60  29  31 W22       29.78F
ROSWELL        MOSUNNY   70  20  15 W20       29.67
RUIDOSO        CLOUDY    52  23  32 SW20      29.79F
SANTA FE       CLOUDY    47  40  76 SW24G31   29.77F WCI  39
TRUTH OR CONSE CLOUDY    56  29  35 VRB3      29.76F
TUCUMCARI      MOSUNNY   60  49  66 NE12      29.67S
$$




USA.gov is the U.S. government's official web portal to all federal, state and local government web resources and services.